Location: Unspecified
(0.0000°N, 0.0000°E)
Time: 07:31:44
(UTC+02:00)

ASC 2 Rocket - Visible Passes

Search period start: 26 March 2017 00:00
Search period end: 05 April 2017 01:00
Orbit: 555 x 2346 km, 24.0° (Epoch: 24 March)

Date Brightness Start Highest point End Pass type
(mag) Time Alt. Az. Time Alt. Az. Time Alt. Az.
26 Mar 5.6 05:29:38 25° NE 05:29:38 25° NE 05:34:33 10° E visible
26 Mar 4.6 07:24:42 10° WNW 07:31:14 88° SSW 07:41:31 10° ESE visible
26 Mar 5.9 22:06:35 10° WNW 22:11:13 17° NNW 22:13:21 15° N visible
27 Mar 4.4 06:22:50 41° NNW 06:24:49 61° NNE 06:33:04 10° ESE visible
27 Mar 5.9 20:56:43 10° W 21:04:50 31° NNW 21:10:34 10° NNE visible
28 Mar 5.7 05:21:11 25° ENE 05:21:11 25° ENE 05:24:41 10° E visible
28 Mar 4.4 07:16:03 15° WNW 07:21:15 66° SSW 07:30:33 10° ESE visible
28 Mar 6.2 21:57:10 10° WNW 22:01:21 15° NNW 22:04:49 10° N visible
29 Mar 3.6 06:14:24 76° NW 06:14:52 84° NNE 06:22:31 10° ESE visible
29 Mar 6.2 20:46:39 10° W 20:54:43 26° NNW 21:00:37 10° NNE visible
30 Mar 6.0 05:12:45 19° E 05:12:45 19° E 05:14:42 10° E visible
30 Mar 4.6 07:07:37 20° W 07:11:26 46° SSW 07:19:31 10° SE visible
30 Mar 6.4 21:47:45 10° NW 21:51:34 13° NNW 21:54:49 10° N visible
31 Mar 4.0 06:05:58 57° SSE 06:05:58 57° SSE 06:11:55 10° ESE visible
31 Mar 6.4 20:36:42 10° WNW 20:44:38 23° NNW 20:50:39 10° NNE visible
01 Apr 6.5 05:04:18 11° ESE 05:04:18 11° ESE 05:04:38 10° ESE visible
01 Apr 4.8 06:59:09 22° WSW 07:01:47 31° SSW 07:08:25 10° SE visible
01 Apr 6.5 21:38:14 10° NW 21:41:52 13° NNW 21:45:01 10° N visible
02 Apr 5.0 05:57:28 30° SSE 05:57:28 30° SSE 06:01:14 10° SE visible
02 Apr 6.6 20:26:49 10° WNW 20:34:37 21° NNW 20:40:42 10° NNE visible
03 Apr 5.1 06:50:37 18° SW 06:52:16 21° SSW 06:57:13 10° SSE visible
03 Apr 6.6 21:28:23 10° NW 21:32:13 13° NNW 21:35:33 10° N visible
04 Apr 5.7 05:48:54 16° SSE 05:48:54 16° SSE 05:50:28 10° SE visible
04 Apr 6.7 20:16:57 10° WNW 20:24:40 19° NNW 20:30:53 10° NNE visible
